Santa Monica, CA

4:49 AM PDT on April 27, 2017 (GMT -0700)
Santa Monica Municipal

Weather History for KSMO - December, 2012

Change the Weather History Date:

Monday, December 17, 2012

  Actual Average Record
Temperature  
Mean Temperature 58 °F -  
Max Temperature 62 °F 67 °F 82 °F (1958)
Min Temperature 54 °F 47 °F 34 °F (1935)
Degree Days  
Heating Degree Days 7    
Growing Degree Days 8 (Base 50)    
Moisture  
Dew Point 51 °F    
Average Humidity 81    
Maximum Humidity 94    
Minimum Humidity 60    
Precipitation  
Precipitation 0.00 in - - ()
Sea Level Pressure  
Sea Level Pressure 30.11 in    
Wind  
Wind Speed 2 mph (West)    
Max Wind Speed 7 mph    
Max Gust Speed -    
Visibility 9 miles    
Events Rain    
Averages and records for this station are not official NWS values.
T = Trace of Precipitation, MM = Missing Value Source: NWS Daily Summary

Daily Weather History Graph

Daily Weather History Graph

Search for Another Location

Airport or City:

Trip Planner

Search our weather history database for the weather conditions in past years. The results will help you decide how hot, cold, wet, or windy it might be!

Date:

Astronomy

Dec. 17, 2012 Rise Set
Actual Time 6:53 AM PST 4:47 PM PST
Civil Twilight 6:25 AM PST 5:14 PM PST
Nautical Twilight 5:54 AM PST 5:46 PM PST
Astronomical Twilight 5:23 AM PST 6:16 PM PST
Moon 10:16 AM PST (12/17) 10:01 PM PST (12/17)
Length of Visible Light 10h 49m
Length of Day
9h 53m
Waxing Crescent, 26% of the Moon is Illuminated
Dec 17
Waxing Crescent
Dec 19
First Quarter
Dec 28
Full
Jan 4
Last Quarter
Jan 11
New

Hourly Weather History & Observations

Time (PST) Temp. Dew Point Humidity Pressure Visibility Wind Dir Wind Speed Gust Speed Precip Events Conditions
12:51 AM 54.0 °F 52.0 °F 93% 30.16 in 8.0 mi Calm Calm - N/A   Overcast
1:51 AM 54.0 °F 52.0 °F 93% 30.17 in 8.0 mi Calm Calm - N/A   Overcast
2:28 AM 55.4 °F 51.8 °F 88% 30.17 in 9.0 mi NNE 3.5 mph - N/A   Overcast
2:36 AM 55.4 °F 51.8 °F 88% 30.17 in 9.0 mi Calm Calm - N/A   Overcast
2:51 AM 55.0 °F 51.1 °F 86% 30.17 in 10.0 mi NE 4.6 mph - N/A   Overcast
3:51 AM 54.0 °F 51.1 °F 90% 30.14 in 10.0 mi NNE 3.5 mph - N/A   Overcast
4:51 AM 55.0 °F 51.1 °F 86% 30.14 in 10.0 mi Calm Calm - N/A   Overcast
5:51 AM 55.0 °F 51.1 °F 86% 30.15 in 10.0 mi Calm Calm - N/A   Overcast
6:51 AM 55.0 °F 51.1 °F 86% 30.16 in 10.0 mi Calm Calm - N/A   Overcast
7:51 AM 57.0 °F 52.0 °F 83% 30.17 in 10.0 mi Calm Calm - N/A   Overcast
8:51 AM 57.9 °F 51.1 °F 78% 30.17 in 10.0 mi Calm Calm - N/A   Overcast
9:51 AM 60.1 °F 51.1 °F 72% 30.19 in 10.0 mi SSW 3.5 mph - N/A   Overcast
10:51 AM 61.0 °F 50.0 °F 67% 30.15 in 10.0 mi Calm Calm - N/A   Mostly Cloudy
11:51 AM 61.0 °F 48.9 °F 64% 30.10 in 10.0 mi Calm Calm - N/A   Mostly Cloudy
12:51 PM 62.1 °F 48.0 °F 60% 30.08 in 10.0 mi SSW 5.8 mph - N/A   Overcast
1:51 PM 61.0 °F 48.0 °F 62% 30.05 in 10.0 mi SW 3.5 mph - N/A   Overcast
4:51 PM 60.1 °F 50.0 °F 69% 30.04 in 10.0 mi West 5.8 mph - N/A   Overcast
5:51 PM 59.0 °F 51.1 °F 75% 30.04 in 10.0 mi Variable 5.8 mph - N/A   Overcast
6:51 PM 59.0 °F 51.1 °F 75% 30.05 in 10.0 mi West 6.9 mph - N/A   Overcast
7:51 PM 59.0 °F 51.1 °F 75% 30.05 in 10.0 mi Variable 3.5 mph - N/A   Overcast
8:51 PM 57.9 °F 52.0 °F 81% 30.05 in 10.0 mi West 5.8 mph - N/A   Overcast
9:51 PM 57.0 °F 54.0 °F 89% 30.04 in 10.0 mi WSW 3.5 mph - 0.00 in Rain Light Rain
10:12 PM 57.2 °F 53.6 °F 88% 30.04 in 8.0 mi West 3.5 mph - 0.00 in Rain Light Rain
10:32 PM 55.4 °F 53.6 °F 94% 30.04 in 6.0 mi Calm Calm - 0.00 in Rain Light Rain
10:51 PM 57.0 °F 55.0 °F 93% 30.04 in 6.0 mi Calm Calm - 0.00 in Rain Light Rain
11:51 PM 57.0 °F 54.0 °F 89% 30.00 in 10.0 mi Calm Calm - 0.00 in   Overcast